Volver al catálogo

YAOGAN-46

ActivoMilitarMEO
NORAD 66313·PAYLOAD·🇨🇳 China

Lanzado Nov 3, 2025 desde Wenchang Space Launch Site

Loading…

Próximos Pases (próximas 24 horas)

TLE

ActualizadoSource: Space-Track

Época: Sep 14, 2026, 12:36 UTC

1 66313U 25250A   26257.52527804 -.00000026  00000-0  00000-0 0  9997
2 66313  20.0590 282.6316 0005207 255.6170 104.3409  5.31209588 16846

Sigue YAOGAN-46 en tiempo real con AllMySat

Download on the App Store